ASE5702 USCC-UNAA

Flight info

Callsign ASE5702
Flight time N/A
Altitude 37000
Route NOMGU2F NOMGU L749 BASAB T762 ABALI L158 OKETI R234 ABESA L158 NOSPI R241 KERAL KERAL1F
Aircraft A310/H-SDFGHIM1RTUWXY/LB1

Departure

Time N/A
Airport Kurchatov Chelyabinsk International Airport (USCC)

Arrival

Time 2026-05-03 20:48
Airport Abakan International Airport (UNAA)
Time Latitude Longitude Altitude Speed Heading
2026-05-03 20:15 54.15715 84.69091 37085 ft 521 kts 104°
2026-05-03 20:15 54.14025 84.81110 37075 ft 521 kts 104°
2026-05-03 20:16 54.12346 84.93115 37089 ft 521 kts 104°
2026-05-03 20:16 54.10664 85.05136 37095 ft 521 kts 105°
2026-05-03 20:17 54.08800 85.16983 37087 ft 521 kts 106°
2026-05-03 20:17 54.06922 85.28927 37092 ft 521 kts 106°
2026-05-03 20:18 54.05073 85.40799 37088 ft 521 kts 105°
2026-05-03 20:18 54.03221 85.52750 37094 ft 522 kts 105°
2026-05-03 20:19 54.01376 85.64700 37096 ft 521 kts 105°
2026-05-03 20:19 53.99489 85.76623 37089 ft 522 kts 106°
2026-05-03 20:20 53.97572 85.88504 37089 ft 522 kts 106°
2026-05-03 20:20 53.95694 86.00350 37090 ft 522 kts 106°
2026-05-03 20:21 53.93775 86.12267 37084 ft 522 kts 106°
2026-05-03 20:21 53.91808 86.24135 37087 ft 522 kts 107°
2026-05-03 20:22 53.89821 86.35929 37086 ft 522 kts 107°
2026-05-03 20:22 53.87878 86.47816 37079 ft 523 kts 107°
2026-05-03 20:23 53.85897 86.59671 37070 ft 523 kts 107°
2026-05-03 20:23 53.83912 86.71553 37076 ft 523 kts 107°
2026-05-03 20:24 53.81937 86.83424 37068 ft 524 kts 107°
2026-05-03 20:24 53.80628 86.95488 37098 ft 521 kts 88°
2026-05-03 20:25 53.81128 87.07649 37093 ft 522 kts 84°
2026-05-03 20:25 53.81338 87.19951 37064 ft 523 kts 89°
2026-05-03 20:26 53.81275 87.32288 37077 ft 523 kts 89°
2026-05-03 20:26 53.81275 87.44625 37057 ft 524 kts 89°
2026-05-03 20:27 53.81293 87.56878 37065 ft 524 kts 89°
2026-05-03 20:27 53.81241 87.69222 37061 ft 524 kts 89°
2026-05-03 20:28 53.81180 87.81568 37041 ft 524 kts 89°
2026-05-03 20:28 53.81154 87.93905 37061 ft 524 kts 89°
2026-05-03 20:29 53.81094 88.06182 37059 ft 524 kts 89°
2026-05-03 20:29 53.81039 88.18548 36914 ft 527 kts 89°
2026-05-03 20:29 53.81015 88.24762 36546 ft 528 kts 89°
2026-05-03 20:30 53.80988 88.30977 36094 ft 528 kts 89°
2026-05-03 20:30 53.80931 88.37196 35662 ft 529 kts 90°
2026-05-03 20:30 53.80869 88.43432 35223 ft 530 kts 89°
2026-05-03 20:30 53.80836 88.49671 34805 ft 531 kts 89°
2026-05-03 20:31 53.80793 88.55934 34377 ft 534 kts 90°
2026-05-03 20:31 53.80737 88.62150 33951 ft 536 kts 90°
2026-05-03 20:31 53.80681 88.68462 33459 ft 538 kts 90°
2026-05-03 20:31 53.80626 88.74795 33014 ft 539 kts 90°
2026-05-03 20:32 53.80564 88.81148 32524 ft 540 kts 90°
2026-05-03 20:32 53.80490 88.87520 32055 ft 542 kts 90°
2026-05-03 20:32 53.80385 88.93898 31594 ft 543 kts 90°
2026-05-03 20:32 53.80272 89.00302 31151 ft 545 kts 91°
2026-05-03 20:33 53.80166 89.06726 30706 ft 546 kts 90°
2026-05-03 20:33 53.80086 89.13151 30272 ft 547 kts 90°
2026-05-03 20:33 53.79990 89.19594 29771 ft 548 kts 90°
2026-05-03 20:33 53.79886 89.26052 29259 ft 549 kts 90°
2026-05-03 20:34 53.79780 89.32489 28761 ft 549 kts 90°
2026-05-03 20:34 53.79677 89.38863 28257 ft 546 kts 90°
2026-05-03 20:34 53.79579 89.45267 27787 ft 542 kts 90°
2026-05-03 20:34 53.79477 89.51613 27297 ft 538 kts 91°
2026-05-03 20:35 53.79352 89.57926 26819 ft 533 kts 91°
2026-05-03 20:35 53.79221 89.64171 26353 ft 528 kts 91°
2026-05-03 20:35 53.79091 89.70367 25896 ft 523 kts 91°
2026-05-03 20:35 53.78967 89.76478 25457 ft 518 kts 91°
2026-05-03 20:36 53.78848 89.82531 25012 ft 513 kts 91°
2026-05-03 20:36 53.78734 89.88538 24584 ft 508 kts 91°
2026-05-03 20:36 53.78628 89.94489 24155 ft 503 kts 91°
2026-05-03 20:36 53.78505 90.00374 23723 ft 499 kts 92°
2026-05-03 20:37 53.78365 90.06122 23127 ft 492 kts 92°
2026-05-03 20:37 53.78225 90.11853 22526 ft 483 kts 92°
2026-05-03 20:37 53.78086 90.17499 21918 ft 475 kts 92°
2026-05-03 20:37 53.77920 90.23029 21337 ft 468 kts 92°
2026-05-03 20:38 53.77738 90.28487 20760 ft 461 kts 93°
2026-05-03 20:38 53.77554 90.33853 20201 ft 454 kts 93°
2026-05-03 20:38 53.77380 90.39142 19655 ft 447 kts 92°
2026-05-03 20:38 53.77222 90.44359 19117 ft 440 kts 92°
2026-05-03 20:39 53.77055 90.49502 18572 ft 434 kts 92°
2026-05-03 20:39 53.76901 90.54503 18013 ft 428 kts 92°
2026-05-03 20:39 53.76734 90.59498 17406 ft 422 kts 92°
2026-05-03 20:39 53.76764 90.64411 16808 ft 414 kts 78°
2026-05-03 20:40 53.77749 90.68875 16237 ft 399 kts 54°
2026-05-03 20:40 53.79352 90.72624 15696 ft 388 kts 47°
2026-05-03 20:40 53.80968 90.76264 15140 ft 385 kts 50°
2026-05-03 20:40 53.82434 90.79985 14583 ft 382 kts 53°
2026-05-03 20:41 53.83805 90.83824 14045 ft 378 kts 55°
2026-05-03 20:41 53.85113 90.87682 13462 ft 374 kts 56°
2026-05-03 20:41 53.85960 90.90215 13067 ft 371 kts 56°
2026-05-03 20:41 53.87222 90.94001 12475 ft 366 kts 56°
2026-05-03 20:42 53.88877 90.98938 11692 ft 361 kts 56°
2026-05-03 20:42 53.90113 91.02621 11137 ft 356 kts 56°
2026-05-03 20:42 53.90940 91.05083 10766 ft 354 kts 57°
2026-05-03 20:42 53.91888 91.08915 10211 ft 354 kts 72°
2026-05-03 20:43 53.92435 91.12920 9644 ft 351 kts 77°
2026-05-03 20:43 53.92905 91.16979 9055 ft 347 kts 77°
2026-05-03 20:43 53.93374 91.20981 8472 ft 343 kts 77°
2026-05-03 20:43 53.93874 91.24907 7902 ft 338 kts 77°
2026-05-03 20:44 53.94359 91.28737 7347 ft 334 kts 77°
2026-05-03 20:44 53.94846 91.32559 6803 ft 329 kts 77°
2026-05-03 20:44 53.95081 91.36374 6222 ft 323 kts 98°
2026-05-03 20:44 53.94297 91.39868 5677 ft 314 kts 127°
2026-05-03 20:45 53.92793 91.42503 5125 ft 308 kts 139°
2026-05-03 20:45 53.91202 91.44932 4549 ft 305 kts 137°
2026-05-03 20:45 53.89683 91.47352 3975 ft 302 kts 142°
2026-05-03 20:45 53.87805 91.48664 3750 ft 289 kts 175°
2026-05-03 20:46 53.85884 91.48160 3443 ft 275 kts 206°
2026-05-03 20:46 53.84237 91.46610 2937 ft 268 kts 212°
2026-05-03 20:46 53.82611 91.45133 2570 ft 261 kts 204°
2026-05-03 20:46 53.80964 91.43965 2118 ft 250 kts 206°
2026-05-03 20:47 53.79449 91.42735 1751 ft 232 kts 204°
2026-05-03 20:47 53.78040 91.41655 1575 ft 212 kts 205°
2026-05-03 20:47 53.76763 91.40663 1364 ft 195 kts 204°
2026-05-03 20:47 53.75594 91.39768 1095 ft 173 kts 205°
2026-05-03 20:48 53.74582 91.38944 851 ft 148 kts 204°
2026-05-03 20:48 53.73741 91.38308 820 ft 111 kts 205°
2026-05-03 20:48 53.73301 91.37971 822 ft 42 kts 205°
2026-05-03 20:48 53.73146 91.37900 821 ft 17 kts 176°
2026-05-03 20:49 53.73120 91.37835 821 ft 8 kts 359°
2026-05-03 20:49 53.73173 91.37877 820 ft 9 kts 25°
2026-05-03 20:49 53.73239 91.37927 820 ft 11 kts 24°
2026-05-03 20:49 53.73314 91.37984 823 ft 14 kts 24°
2026-05-03 20:50 53.73422 91.38065 821 ft 20 kts 23°
2026-05-03 20:50 53.73565 91.38170 824 ft 25 kts 24°
2026-05-03 20:50 53.73742 91.38305 820 ft 30 kts 28°
2026-05-03 20:50 53.73938 91.38482 821 ft 33 kts 25°
2026-05-03 20:51 53.74147 91.38638 825 ft 32 kts 24°
2026-05-03 20:51 53.74303 91.38817 822 ft 26 kts 43°
2026-05-03 20:51 53.74390 91.39006 817 ft 13 kts 58°
2026-05-03 20:51 53.74442 91.39138 819 ft 14 kts 53°
2026-05-03 20:52 53.74513 91.39237 820 ft 12 kts 31°
2026-05-03 20:52 53.74589 91.39300 823 ft 12 kts 23°
2026-05-03 20:52 53.74666 91.39355 820 ft 12 kts 23°
2026-05-03 20:52 53.74741 91.39409 820 ft 9 kts 24°
2026-05-03 20:53 53.74774 91.39440 820 ft 0 kts 44°
2026-05-03 20:53 53.74777 91.39471 819 ft 4 kts 92°
2026-05-03 20:53 53.74766 91.39517 819 ft 1 kts 114°